Погода в Чхонане

Южная Корея     36°48′48″N   127°08′11″E
темп.,
°C
ветер,
м/с
пор.,
м/с
влажн.,
%
обл.,
%
осадки,
мм/ч
давл.,
гПа
погр.,
м
9 марта, вт
вт900:00+4зсз11700 0.0 102722
03:00+4ссз117050 0.0 102622
06:00+3ссз1175100 0.0 102622
09:00+5зсз1161100 0.0 1027195
12:00+9зсз2332100 0.0 1026791
15:00+10сз4636100 0.0 1024706
18:00+6зсз3745100 0.0 1025423
21:00+4зсз226596 0.0 102773
10 марта, ср
ср1000:00+3з117561 0.0 102722
03:00+2з118130 0.0 102822
06:00+1вюв11870 0.0 102922
09:00+5в12710 0.0 1030233
12:00+11юв35480 0.0 1029743
15:00+15юв45430 0.0 1027976
18:00+13юв22530 0.0 102740
21:00+7сз22670 0.0 102922
11 марта, чт
чт1100:00+6зсз017065 0.0 103022
03:00+5юв117582 0.0 102922
06:00+4юв1176100 0.0 102822
09:00+8вюв1163100 0.0 1029147
12:00+12зсз2244100 0.0 1028610
15:00+13сз3340100 0.0 1026746
18:00+10сз2454100 0.0 1025272
21:00+7сз1160100 0.0 102622
12 марта, пт
пт1200:00+6ссз115895 0.0 102622
03:00+6ссз115798 0.0 102622
06:00+4с115833 0.0 102622
09:00+9св114717 0.0 1027155
12:00+14св23350 0.0 1026935
15:00+16с22310 0.0 10241650
18:00+13сз22500 0.0 102481
21:00+8з11637 0.0 102622
13 марта, сб
сб1300:00+8ююз11671 0.0 102722
03:00+7юв11750 0.0 102622
06:00+6вюв12780 0.0 102622
09:00+9вюв22620 0.0 1026279
12:00+14юв22460 0.0 1025780
15:00+17сз01399 0.0 10231752
18:00+12сз355869 0.0 1022291
21:00+9сз227036 0.0 102355